McAlester, OK

10:01 AM CST on November 18, 2019 (GMT -0600)
McAlester Regional

Weather History for KMLC - August, 2019

Change the Weather History Date:

Wednesday, August 28, 2019

  Actual Average Record
Temperature  
Mean Temperature 81 °F -  
Max Temperature 91 °F 90 °F 106 °F (1963)
Min Temperature 72 °F 67 °F 52 °F (1992)
Cooling Degree Days 16    
Growing Degree Days 31 (Base 50)    
Moisture  
Dew Point 70 °F    
Average Humidity 72    
Maximum Humidity 85    
Minimum Humidity 54    
Precipitation  
Precipitation 0.00 in - - ()
Sea Level Pressure  
Sea Level Pressure 30.04 in    
Wind  
Wind Speed 4 mph (ENE)    
Max Wind Speed 6 mph    
Max Gust Speed -    
Visibility 10 miles    
Events      
Averages and records for this station are not official NWS values.
T = Trace of Precipitation, MM = Missing Value Source: NWS Daily Summary

Daily Weather History Graph

Daily Weather History Graph

Search for Another Location

Airport or City:

Astronomy

Aug. 28, 2019 Rise Set
Actual Time 6:52 AM CDT 7:55 PM CDT
Civil Twilight 6:26 AM CDT 8:21 PM CDT
Nautical Twilight 5:55 AM CDT 8:52 PM CDT
Astronomical Twilight 5:23 AM CDT 9:23 PM CDT
Moon 4:33 AM CDT (8/28) 7:02 PM CDT (8/28)
Length of Visible Light 13h 54m
Length of Day
13h 02m
Waning Crescent, 4% of the Moon is Illuminated
Aug 28
Waning Crescent
Aug 30
New
Sep 5
First Quarter
Sep 13
Full
Sep 21
Last Quarter

Hourly Weather History & Observations

Time (CDT) Temp. Heat Index Dew Point Humidity Pressure Visibility Wind Dir Wind Speed Gust Speed Precip Events Conditions
12:53 AM 75.9 °F - 68.0 °F 76% 30.03 in 10.0 mi NE 4.6 mph - N/A   Scattered Clouds
1:53 AM 73.9 °F - 66.9 °F 79% 30.04 in 10.0 mi NNE 4.6 mph - N/A   Partly Cloudy
2:53 AM 73.9 °F - 66.9 °F 79% 30.04 in 10.0 mi NE 4.6 mph - N/A   Clear
3:53 AM 73.0 °F - 66.9 °F 81% 30.04 in 10.0 mi NE 3.5 mph - N/A   Partly Cloudy
4:53 AM 72.0 °F - 66.9 °F 84% 30.04 in 10.0 mi Calm Calm - N/A   Partly Cloudy
5:53 AM 72.0 °F - 66.0 °F 81% 30.05 in 10.0 mi NE 3.5 mph - N/A   Partly Cloudy
6:53 AM 72.0 °F - 66.9 °F 84% 30.07 in 10.0 mi Calm Calm - N/A   Overcast
7:53 AM 72.0 °F - 66.9 °F 84% 30.08 in 10.0 mi North - - N/A   Mostly Cloudy
8:53 AM 73.9 °F - 69.1 °F 85% 30.08 in 10.0 mi Calm Calm - N/A   Overcast
9:53 AM 77.0 °F - 70.0 °F 79% 30.09 in 10.0 mi ENE 4.6 mph - N/A   Mostly Cloudy
10:53 AM 81.0 °F 85.8 °F 73.0 °F 77% 30.09 in 10.0 mi Calm Calm - N/A   Overcast
11:31 AM 84.0 °F 89.6 °F 72.0 °F 67% 30.11 in 10.0 mi Variable 3.5 mph - N/A   Overcast
11:53 AM 82.9 °F 88.0 °F 72.0 °F 69% 30.09 in 10.0 mi SSE 4.6 mph - N/A   Mostly Cloudy
12:03 PM 82.9 °F 88.0 °F 72.0 °F 69% 30.11 in 10.0 mi Variable 4.6 mph - N/A   Mostly Cloudy
12:35 PM 86.0 °F 92.2 °F 72.0 °F 63% 30.10 in 10.0 mi West 4.6 mph - N/A   Mostly Cloudy
12:53 PM 86.0 °F 92.2 °F 72.0 °F 63% 30.07 in 10.0 mi South 3.5 mph - N/A   Mostly Cloudy
1:53 PM 87.1 °F 92.0 °F 70.0 °F 57% 30.05 in 10.0 mi SW 3.5 mph - N/A   Partly Cloudy
2:53 PM 88.0 °F 93.8 °F 71.1 °F 57% 30.03 in 10.0 mi Variable 4.6 mph - N/A   Overcast
3:53 PM 90.0 °F 96.4 °F 71.1 °F 54% 30.01 in 10.0 mi WSW 4.6 mph - N/A   Partly Cloudy
4:53 PM 88.0 °F 93.8 °F 71.1 °F 57% 30.00 in 10.0 mi Variable 3.5 mph - N/A   Partly Cloudy
5:53 PM 88.0 °F 94.7 °F 72.0 °F 59% 29.99 in 10.0 mi ENE 4.6 mph - N/A   Mostly Cloudy
6:53 PM 86.0 °F 92.2 °F 72.0 °F 63% 29.98 in 10.0 mi ENE 4.6 mph - N/A   Partly Cloudy
7:53 PM 82.9 °F 88.8 °F 73.0 °F 72% 29.97 in 10.0 mi ENE 3.5 mph - N/A   Clear
8:53 PM 81.0 °F 85.8 °F 73.0 °F 77% 29.98 in 10.0 mi East 4.6 mph - N/A   Clear
9:53 PM 80.1 °F 83.8 °F 72.0 °F 76% 30.00 in 10.0 mi East 4.6 mph - N/A   Partly Cloudy
10:53 PM 79.0 °F - 71.1 °F 77% 30.01 in 10.0 mi East 5.8 mph - N/A   Overcast
11:53 PM 77.0 °F - 72.0 °F 84% 30.02 in 10.0 mi ESE 3.5 mph - N/A   Clear